Temperature
20 20 20 19 19 19 19 19 19 19 18 18 18 18 18 18 18 17 17 17 17 17 17 16 16 16 16 16 16 16 15 15 15 14 14 14 14 14 13 13 13 13 13
20 20 19 19 19 19 19 19 19 18 18 18 18 17 17 17 17 17 17 17 17 16 16 16 16 16 16 16 15 15 15 15 15 14 14 13 13 13 13 13 13 13 13
20 19 19 19 19 19 19 19 18 18 18 18 17 17 17 17 17 17 17 16 16 16 16 16 16 16 16 15 15 15 15 14 14 14 13 13 13 13 13 13 12 12 12
20 19 19 19 19 18 18 18 18 18 18 17 17 17 17 17 16 16 16 16 16 16 15 15 15 15 15 15 15 15 15 14 14 14 13 13 13 12 12 12 12 12 12
19 19 19 19 18 18 18 17 17 17 17 17 17 17 16 16 16 16 15 15 15 15 15 15 15 15 15 15 15 14 14 14 14 13 13 12 12 12 12 12 12 12 11
19 19 19 18 18 17 17 17 17 17 17 17 17 16 16 16 16 15 15 15 15 15 15 14 14 14 14 14 14 14 14 14 13 13 12 12 12 12 12 12 11 11 11
19 19 18 18 18 17 17 17 17 16 16 16 16 16 16 15 15 15 15 15 15 14 14 14 14 14 14 14 14 14 13 13 13 13 13 12 12 12 12 12 11 11 11
19 18 18 18 17 17 17 17 16 16 16 16 16 15 15 15 15 15 14 14 14 14 14 14 14 14 13 13 13 13 13 13 13 12 12 12 12 12 12 11 11 11 11
18 18 18 17 17 17 16 16 16 16 15 15 15 15 15 14 14 14 14 14 14 14 13 13 13 13 13 13 13 13 12 12 12 12 12 12 11 11 11 11 11 11 10
18 18 17 17 17 16 16 16 15 15 15 14 14 14 14 14 14 14 13 13 13 13 13 13 13 13 13 13 12 12 12 12 12 12 11 11 11 11 11 11 11 10 10
18 17 17 17 16 16 16 16 15 15 14 14 14 14 14 13 13 13 13 13 13 13 13 13 13 12 12 12 12 12 12 12 12 11 11 11 11 10 10 10 10 10 10
18 17 17 16 16 16 15 15 15 14 14 14 14 13 13 13 13 13 13 13 12 12 12 12 12 12 12 12 12 12 12 11 11 11 11 10 10 10 10 10 10 10 10
17 17 16 16 15 15 15 15 14 14 14 14 13 13 13 13 13 12 12 12 12 12 12 12 12 12 12 11 11 11 11 11 11 11 11 10 10 10 10 10 10 10 10
17 16 16 15 15 15 15 15 14 14 14 13 13 13 13 13 13 12 12 12 12 12 12 12 12 12 12 11 11 11 11 11 11 10 10 10 10 10 10 9 9 9 9
16 16 16 15 15 15 15 14 14 14 14 14 13 13 13 13 13 12 12 12 12 12 12 12 11 11 11 11 11 11 11 10 10 10 10 10 10 10 9 9 9 9 9
16 16 15 15 15 15 14 14 14 14 14 13 13 13 13 13 13 12 12 12 12 12 12 11 11 11 11 11 11 10 10 10 10 10 10 10 9 9 9 9 9 9 9
16 15 15 15 14 14 14 14 14 13 13 13 13 13 13 13 12 12 12 12 12 12 11 11 11 11 11 11 10 10 10 10 10 10 9 9 9 9 9 9 9 9 9
16 15 15 15 14 14 14 14 14 13 13 13 13 13 12 12 12 12 12 12 11 11 11 11 11 11 11 10 10 10 10 10 9 9 9 9 9 9 9 9 9 8 8
15 15 15 15 15 14 14 14 13 13 13 13 13 12 12 12 12 12 12 12 11 11 11 11 11 10 10 10 10 9 9 9 9 9 9 9 9 8 8 8 8 8 8
15 15 15 15 14 14 14 14 14 13 13 13 13 13 12 12 12 12 12 11 11 11 11 10 10 10 10 10 9 9 9 9 8 8 8 8 8 8 8 8 8 8 8
15 15 15 14 14 14 14 14 14 14 13 13 13 13 13 12 12 12 12 11 11 11 10 10 10 10 10 9 9 9 9 8 8 8 8 8 8 8 8 8 8 8 8
15 15 14 14 14 14 14 14 14 14 13 13 13 12 12 12 12 12 11 11 11 11 10 10 10 10 9 9 9 9 8 8 8 8 8 8 7 7 7 7 7 7 7
15 14 14 14 14 14 14 14 14 13 13 13 13 12 12 12 12 11 11 11 11 10 10 10 9 9 9 9 9 8 8 8 8 8 7 7 7 7 7 7 7 7 7
14 14 14 14 14 14 14 14 13 13 13 13 13 12 12 12 11 11 11 11 10 10 10 9 9 9 9 8 8 8 8 8 8 7 7 7 7 7 7 7 7 7 7
14 14 14 14 14 14 13 13 13 13 13 12 12 12 12 11 11 11 10 10 10 9 9 9 9 8 8 8 8 8 8 7 7 7 7 7 7 6 6 6 6 6 6
14 14 14 14 14 13 13 13 13 13 12 12 12 12 11 11 11 10 10 10 9 9 9 9 8 8 8 8 8 7 7 7 7 7 7 6 6 6 6 6 6 6 6
Wind_Speed
6 5 4 4 4 3 2 2 2 1 1 0 1 1 1 1 1 2 2 1 1 1 0 1 1 1 1 1 1 1 1 2 3 1 2 2 3 4 6 7 7 8 9
6 5 4 3 3 3 2 1 2 2 1 1 1 1 1 1 1 2 2 1 1 1 1 1 1 1 1 1 1 1 2 2 3 4 3 2 3 3 4 4 6 7 9
7 6 4 3 3 3 2 2 2 2 2 2 2 1 1 1 1 2 1 1 1 1 1 2 2 2 1 1 2 1 1 2 3 4 3 2 2 2 3 4 6 6 8
6 6 5 4 3 3 2 3 3 3 3 2 2 2 2 2 2 2 2 1 2 2 2 3 3 2 1 0 1 1 2 3 3 3 3 3 2 2 3 4 3 2 4
6 6 5 5 4 3 3 3 3 4 4 3 3 3 3 3 3 3 2 3 3 3 3 3 4 5 6 4 3 2 3 3 3 3 3 3 3 2 2 2 3 2 3
7 6 5 5 5 4 4 5 4 5 4 4 4 5 5 4 7 7 4 3 3 3 3 3 3 4 5 7 7 7 5 4 3 3 3 3 3 2 1 1 2 2 2
7 6 5 5 5 4 5 5 5 5 5 5 5 6 6 7 9 8 6 4 4 4 3 3 3 5 5 4 7 8 8 8 6 4 4 3 2 1 1 1 1 2 2
6 5 5 6 6 5 5 5 5 5 5 5 5 5 6 7 9 8 6 5 6 6 5 5 5 5 6 5 6 6 6 6 5 4 4 3 3 1 0 1 2 3 3
7 6 6 6 6 6 5 5 5 5 6 5 5 5 5 6 9 8 6 5 6 6 6 7 6 6 8 7 5 5 5 4 7 7 6 6 5 5 3 2 1 2 2
7 6 6 6 6 6 5 5 5 5 6 6 6 5 5 5 7 9 6 3 5 5 5 7 9 8 8 7 5 4 4 3 3 4 4 3 4 5 5 3 1 1 1
8 7 7 6 6 6 5 4 4 5 6 6 6 5 6 5 7 10 9 3 3 4 4 4 5 8 8 7 5 4 4 2 2 4 3 3 3 3 3 4 3 2 1
9 8 7 7 6 6 5 4 4 5 6 6 6 5 4 5 6 7 9 8 5 4 4 4 4 6 7 6 5 4 4 3 1 2 3 3 3 2 2 3 3 3 1
9 8 8 7 6 5 5 4 4 4 5 5 5 5 5 4 5 7 8 9 9 6 5 6 6 4 3 3 3 3 2 1 1 2 3 3 2 2 2 2 1 1 1
9 8 7 7 7 5 4 4 3 2 3 4 4 5 5 5 4 3 3 5 6 6 5 4 4 2 0 1 1 1 1 1 2 2 2 2 2 2 2 1 0 0 1
9 8 8 7 6 6 5 4 3 4 2 3 3 4 4 4 2 2 3 2 2 3 2 2 2 2 2 2 2 1 1 1 1 1 2 2 2 1 1 1 1 1 1
8 7 7 7 6 6 7 6 10 7 9 10 8 6 5 6 6 6 5 4 4 3 1 1 2 1 1 2 2 2 1 1 1 1 1 1 1 0 0 0 0 1 1
7 7 6 7 7 7 7 7 6 5 8 9 8 9 8 7 7 6 5 4 1 1 1 0 1 1 1 1 1 1 2 1 1 2 1 1 1 1 1 1 0 1 1
7 7 6 6 7 7 7 7 7 7 6 4 4 5 7 7 6 4 4 2 1 1 1 1 1 1 1 1 2 2 2 2 2 2 2 2 1 1 1 1 1 2 2
7 6 6 6 6 6 7 7 7 7 6 6 5 4 4 5 4 3 3 2 2 2 2 1 1 1 2 2 2 2 1 2 2 1 2 2 2 2 2 2 1 1 2
5 6 5 5 6 6 6 6 6 6 7 7 7 7 6 5 4 4 4 3 2 2 1 2 2 2 2 2 2 1 1 1 1 1 1 2 2 2 2 3 2 2 2
6 6 6 6 6 6 5 5 5 5 5 6 6 7 8 6 5 5 5 4 3 2 2 2 2 2 2 2 1 0 1 1 1 2 2 2 2 2 3 3 3 3 3
6 6 6 5 5 5 4 4 4 4 5 6 6 7 8 5 4 4 4 4 3 2 2 1 1 1 1 1 1 0 0 1 1 2 2 3 2 3 3 3 3 3 3
6 7 6 5 4 5 5 4 4 4 4 5 5 6 6 4 3 3 3 3 2 2 2 2 1 1 2 3 3 2 2 2 2 2 3 3 3 3 3 3 3 4 3
6 7 6 6 5 5 5 4 4 4 4 4 5 5 5 4 3 2 2 1 2 2 3 3 2 1 4 4 3 3 3 3 3 4 4 4 5 4 3 3 3 4 3
5 5 5 5 5 4 4 4 4 4 4 3 3 3 3 3 2 2 2 2 2 2 2 2 3 4 5 4 4 4 3 3 3 4 5 5 4 4 3 4 4 4 4
4 4 4 4 4 4 4 4 3 3 3 3 3 3 3 3 3 3 2 2 2 2 3 3 4 5 5 4 5 5 3 2 1 3 5 5 4 3 4 4 5 4 5
Wind_Direction
168 169 172 167 165 168 172 153 141 118 94 71 93 127 152 162 167 159 160 159 153 116 51 58 29 26 14 7 44 84 109 129 142 135 98 90 88 94 100 102 100 96 93
151 148 151 142 146 154 149 129 119 120 106 86 70 85 109 122 145 152 174 158 137 135 101 52 34 59 49 36 38 89 116 124 136 137 124 101 93 108 119 109 100 96 95
143 141 135 129 123 129 138 132 121 112 98 75 65 61 50 49 95 114 129 128 119 95 78 70 61 60 57 66 74 79 110 120 120 130 131 116 96 96 100 89 90 99 99
138 139 132 126 121 128 126 117 109 103 93 80 67 60 60 43 54 73 79 89 91 77 68 69 65 69 55 65 101 92 104 114 123 122 122 111 96 89 89 94 94 89 95
133 132 133 130 120 112 109 109 107 99 93 75 64 55 49 53 50 49 75 83 77 73 71 76 80 81 74 69 71 64 91 101 109 110 106 90 79 93 92 111 113 105 88
136 137 135 134 126 117 113 109 101 93 83 73 68 62 57 50 37 45 61 81 84 83 79 78 83 73 78 80 79 74 75 92 98 102 103 103 93 75 65 114 114 110 97
135 135 135 135 131 126 122 109 100 94 90 82 75 71 63 44 35 40 51 70 76 72 72 63 59 61 69 80 85 78 66 67 82 98 108 110 119 119 108 97 113 112 98
139 135 130 127 123 118 114 108 105 103 97 88 79 74 69 48 36 40 53 78 71 62 57 60 62 53 52 64 81 78 70 60 68 89 103 108 112 107 128 126 134 118 105
141 136 130 124 125 123 119 116 112 110 103 98 91 81 74 52 38 38 47 93 84 71 61 56 61 63 48 64 89 98 94 78 73 91 107 113 111 95 73 80 89 117 119
138 133 128 125 127 123 119 116 115 114 113 108 94 84 77 62 44 40 35 89 96 91 80 66 58 58 51 59 83 88 88 86 89 93 98 104 113 106 91 74 62 103 99
132 126 124 123 122 121 119 118 126 127 119 112 107 95 82 70 59 49 45 56 85 99 95 81 61 55 51 45 63 77 82 80 98 103 105 103 95 85 76 70 60 67 81
132 129 127 127 129 126 125 127 138 137 131 125 117 108 97 83 65 61 56 55 60 86 90 91 86 73 60 47 58 62 60 65 96 108 104 96 96 93 88 85 77 70 99
135 133 132 130 120 123 128 129 132 143 139 137 138 131 121 111 92 77 68 66 66 79 85 103 111 99 72 69 78 60 55 47 61 89 93 94 98 103 102 93 79 56 54
141 140 137 133 131 127 126 127 124 127 141 145 142 134 127 123 114 109 112 102 97 98 103 116 133 138 82 28 71 86 91 56 49 67 83 98 109 108 103 95 72 175 86
146 146 144 140 132 117 99 69 86 67 84 120 119 125 131 128 115 115 123 115 116 107 125 168 172 157 142 136 129 114 95 86 70 64 70 73 85 91 90 71 9 341 1
153 156 155 151 147 144 132 101 59 75 79 83 87 100 101 111 123 103 95 91 92 95 132 170 151 151 139 132 135 126 95 59 31 53 73 63 27 39 149 98 61 338 341
157 160 161 160 160 161 153 145 129 89 71 71 83 100 116 129 120 110 98 83 89 113 196 198 113 102 100 99 89 84 94 71 32 26 36 31 349 331 354 14 28 318 319
167 166 171 171 171 168 165 164 159 154 145 125 96 114 132 139 142 139 127 111 155 180 213 178 114 98 93 73 66 54 58 73 46 12 10 6 350 342 356 344 348 341 328
176 174 176 169 170 168 167 169 166 164 159 151 146 139 153 155 159 188 192 214 195 188 208 167 114 95 89 80 68 56 42 51 52 6 8 350 342 345 347 335 329 333 313
168 166 172 176 175 175 176 177 172 168 165 163 163 158 162 174 180 186 200 223 221 197 168 124 107 97 100 99 94 32 25 63 34 335 6 341 331 331 322 313 310 300 286
170 168 180 188 183 175 172 173 171 172 166 159 156 154 165 185 187 181 188 206 213 182 141 137 151 158 131 131 137 199 335 40 61 1 348 331 328 326 312 306 306 312 315
168 172 180 182 173 164 165 174 172 166 161 156 152 156 171 197 193 178 187 193 190 169 152 158 153 127 108 119 110 105 113 49 37 3 331 317 308 307 308 315 326 331 327
175 174 176 173 169 156 173 178 164 156 153 156 159 161 173 194 197 183 189 182 155 150 139 136 133 133 115 99 88 61 39 29 18 13 330 316 313 306 308 320 323 324 332
177 176 174 169 172 175 173 168 165 165 170 173 172 170 172 180 193 179 167 138 145 149 154 162 171 132 111 117 119 97 63 45 23 4 340 314 305 311 326 329 322 324 327
175 172 167 163 166 169 167 164 165 163 167 169 171 166 164 174 185 170 156 148 149 156 169 168 163 149 137 133 125 122 99 71 40 5 335 315 311 323 331 328 325 320 318
168 162 161 158 159 160 161 161 161 160 160 161 159 159 169 180 181 173 172 171 188 183 182 171 163 154 151 164 167 159 149 132 8 340 330 314 310 323 336 323 315 311 311
Height
1544 1546 1547 1548 1548 1549 1549 1549 1550 1550 1551 1551 1551 1551 1551 1551 1551 1551 1551 1551 1551 1550 1550 1551 1551 1551 1551 1551 1552 1552 1552 1553 1553 1555 1556 1557 1557 1557 1557 1556 1556 1555 1555
1543 1545 1546 1546 1547 1547 1547 1547 1548 1548 1548 1549 1549 1549 1549 1549 1549 1549 1549 1549 1549 1549 1549 1549 1549 1549 1549 1549 1550 1550 1551 1551 1552 1552 1554 1555 1556 1556 1556 1556 1556 1556 1555
1542 1543 1544 1545 1545 1545 1545 1546 1546 1546 1547 1547 1547 1547 1547 1547 1547 1547 1547 1547 1547 1547 1547 1547 1547 1547 1547 1548 1548 1549 1550 1550 1551 1551 1552 1554 1555 1555 1556 1556 1556 1556 1555
1542 1542 1543 1543 1544 1543 1544 1544 1545 1545 1545 1546 1546 1546 1546 1546 1546 1545 1546 1545 1545 1546 1546 1545 1546 1546 1546 1547 1547 1548 1549 1549 1550 1551 1552 1553 1554 1554 1555 1555 1555 1556 1555
1541 1541 1542 1543 1543 1543 1543 1543 1544 1544 1545 1545 1545 1545 1545 1544 1544 1544 1544 1544 1543 1544 1544 1544 1545 1545 1545 1546 1546 1547 1547 1548 1548 1549 1551 1552 1553 1553 1554 1554 1554 1555 1555
1539 1540 1541 1542 1543 1543 1543 1543 1543 1543 1544 1544 1544 1544 1544 1543 1543 1543 1544 1543 1543 1543 1544 1544 1544 1544 1545 1545 1545 1545 1546 1546 1547 1548 1549 1550 1551 1552 1553 1553 1554 1554 1554
1538 1539 1541 1542 1542 1543 1543 1543 1543 1543 1544 1544 1544 1544 1543 1544 1544 1543 1543 1543 1543 1543 1543 1543 1544 1544 1544 1544 1544 1545 1545 1545 1547 1548 1548 1549 1550 1551 1551 1552 1553 1553 1553
1537 1539 1540 1541 1541 1542 1543 1543 1543 1543 1543 1544 1544 1544 1544 1544 1544 1543 1543 1543 1543 1543 1543 1543 1543 1543 1543 1544 1544 1545 1546 1546 1547 1548 1548 1549 1550 1551 1551 1551 1552 1553 1553
1536 1538 1539 1540 1541 1541 1542 1542 1543 1543 1543 1544 1544 1544 1544 1544 1544 1544 1544 1543 1543 1543 1543 1543 1544 1544 1544 1544 1544 1545 1546 1547 1548 1548 1549 1549 1550 1550 1550 1550 1550 1551 1551
1535 1537 1538 1539 1540 1541 1542 1542 1542 1543 1544 1544 1544 1544 1544 1544 1545 1545 1545 1545 1544 1544 1544 1544 1545 1545 1545 1545 1545 1545 1546 1547 1548 1549 1549 1550 1550 1550 1550 1550 1550 1550 1550
1534 1536 1537 1538 1539 1540 1541 1542 1542 1543 1544 1544 1545 1545 1545 1545 1545 1545 1546 1546 1546 1546 1545 1546 1546 1547 1547 1547 1547 1547 1548 1549 1549 1549 1550 1550 1550 1550 1550 1550 1550 1550 1550
1533 1535 1536 1538 1539 1540 1541 1541 1542 1543 1544 1544 1545 1545 1546 1546 1546 1547 1547 1547 1547 1547 1547 1548 1548 1549 1549 1549 1549 1549 1550 1550 1550 1550 1551 1550 1550 1550 1550 1551 1550 1550 1550
1532 1534 1536 1537 1538 1540 1541 1541 1541 1543 1544 1545 1545 1546 1546 1547 1547 1548 1548 1549 1549 1549 1549 1549 1550 1550 1551 1551 1551 1551 1551 1551 1552 1552 1552 1551 1551 1551 1551 1551 1551 1550 1550
1531 1533 1535 1536 1538 1539 1540 1541 1542 1543 1544 1545 1546 1546 1546 1547 1548 1548 1549 1549 1550 1550 1551 1551 1551 1552 1552 1552 1552 1552 1552 1552 1552 1553 1553 1552 1552 1552 1551 1551 1551 1550 1550
1530 1532 1534 1536 1537 1538 1540 1541 1542 1543 1544 1545 1546 1547 1547 1547 1548 1549 1550 1550 1551 1551 1552 1552 1552 1553 1553 1553 1553 1553 1553 1553 1553 1553 1553 1553 1552 1552 1552 1551 1551 1550 1550
1529 1531 1533 1535 1537 1538 1539 1540 1542 1543 1544 1545 1546 1547 1547 1548 1548 1549 1550 1551 1552 1552 1552 1553 1553 1553 1553 1554 1554 1553 1553 1553 1553 1553 1553 1552 1552 1552 1551 1551 1550 1550 1549
1528 1530 1533 1534 1536 1537 1539 1540 1541 1543 1544 1545 1546 1547 1547 1548 1549 1550 1551 1551 1552 1552 1553 1553 1554 1554 1554 1554 1554 1554 1553 1553 1553 1553 1552 1552 1551 1551 1550 1550 1549 1549 1548
1527 1529 1532 1533 1535 1537 1538 1539 1541 1542 1543 1544 1545 1546 1547 1548 1549 1550 1551 1551 1552 1552 1552 1553 1553 1553 1553 1553 1553 1553 1553 1552 1552 1552 1551 1551 1550 1549 1549 1548 1547 1547 1546
1526 1528 1530 1533 1534 1536 1537 1539 1540 1541 1542 1543 1544 1545 1546 1547 1548 1549 1550 1550 1551 1551 1552 1552 1552 1552 1552 1552 1552 1552 1552 1551 1551 1550 1550 1549 1549 1548 1547 1547 1546 1545 1545
1525 1527 1529 1531 1533 1535 1536 1538 1539 1540 1541 1542 1543 1544 1545 1546 1547 1548 1549 1549 1550 1550 1550 1551 1551 1551 1551 1551 1551 1551 1551 1550 1550 1549 1549 1548 1547 1547 1546 1545 1544 1543 1543
1524 1525 1527 1529 1531 1533 1535 1536 1537 1539 1540 1541 1542 1543 1544 1545 1546 1547 1547 1548 1549 1549 1549 1549 1549 1550 1550 1549 1549 1549 1549 1549 1548 1548 1547 1546 1546 1545 1544 1543 1543 1542 1541
1523 1524 1526 1528 1530 1531 1533 1535 1536 1538 1539 1540 1541 1542 1543 1544 1545 1545 1546 1546 1547 1547 1547 1547 1548 1548 1548 1547 1547 1547 1547 1547 1546 1546 1545 1545 1544 1543 1542 1541 1541 1540 1539
1521 1523 1525 1526 1528 1530 1532 1534 1535 1536 1537 1538 1539 1540 1541 1542 1543 1544 1544 1545 1545 1545 1545 1545 1545 1545 1545 1545 1545 1545 1544 1544 1544 1543 1542 1542 1542 1541 1540 1540 1539 1538 1537
1520 1522 1523 1525 1527 1529 1531 1532 1533 1534 1536 1536 1537 1538 1539 1540 1541 1541 1542 1542 1542 1542 1542 1543 1543 1543 1542 1542 1542 1542 1542 1541 1541 1540 1540 1539 1539 1539 1538 1537 1537 1536 1535
1519 1521 1522 1524 1526 1527 1529 1530 1531 1533 1534 1535 1536 1537 1537 1538 1538 1539 1539 1539 1539 1539 1540 1540 1540 1540 1539 1540 1540 1539 1539 1539 1538 1538 1537 1537 1536 1536 1536 1535 1534 1533 1532
1517 1519 1521 1523 1524 1526 1527 1528 1529 1531 1532 1533 1534 1534 1535 1535 1536 1536 1536 1536 1536 1536 1537 1537 1537 1536 1536 1536 1536 1536 1536 1535 1535 1535 1534 1534 1533 1533 1532 1532 1531 1530 1530